Regional Weather Roundup
Issued by NWS

Home | Current Version | Previous Version | Graphics & Text | Print | Product List | Glossary On
Versions: 1 2 3 4 5 6 7 8 9 10 11 12 13 14 15 16 17 18 19 20 21 22 23 24 25 26 27 28 29 30 31 32 33 34 35 36 37 38 39 40 41 42 43 44 45 46 47 48 49 50
000
ASUS43 KFSD 241310
RWRSD

WEATHER ROUNDUP FOR SOUTH DAKOTA
NATIONAL WEATHER SERVICE SIOUX FALLS SD
800 AM CDT SUN SEP 24 2017

NOTE: "FAIR" INDICATES FEW OR NO CLOUDS BELOW 12,000 FEET WITH NO
SIGNIFICANT WEATHER AND/OR OBSTRUCTIONS TO VISIBILITY.


SDZ001>005-009-010-012>017-241400-
NORTHWEST AND NORTH CENTRAL SOUTH DAKOTA

CITY           SKY/WX    TMP DP  RH WIND       PRES   REMARKS
BUFFALO          N/A     44  42  93 N10       29.98R
FAITH            N/A     45  45 100 N18       29.97S
MOBRIDGE       RAIN      51  49  92 N9        29.90R FOG
$$

SDZ012>016-024>037-041>051-057-063-072>074-241400-
SOUTHWEST AND SOUTH CENTRAL SOUTH DAKOTA

CITY           SKY/WX    TMP DP  RH WIND       PRES   REMARKS
RAPID CTY ARPT CLOUDY    45  43  93 N16       30.01S
PIERRE         RAIN      51  50  96 NW12      29.89R
CUSTER         CLOUDY    39  35  86 NW7       30.00R
ELLSWORTH AFB  CLOUDY    45  45 100 NW15      30.00S
PHILIP         CLOUDY    48  48 100 NW15      29.97R
PINE RIDGE     CLOUDY    45  45 100 N8        30.00S
SPEARFISH      MIX PCPN  41  41 100 NW8       30.05R
WINNER         LGT RAIN  53  51  93 W6        29.91R
$$

SDZ004>011-016>023-039-040-241400-
NORTHEAST SOUTH DAKOTA

CITY           SKY/WX    TMP DP  RH WIND       PRES   REMARKS
ABERDEEN       LGT RAIN  54  54 100 NE5       29.84F FOG
WATERTOWN      MOCLDY    60  60 100 S7        29.84F
BROOKINGS      MOCLDY    65  63  93 S8        29.88R
SISSETON         N/A     61  61 100 SE6       29.83S
$$

SDZ017-020-022-023-036>040-048>070-241400-
SOUTHEAST SOUTH DAKOTA

CITY           SKY/WX    TMP DP  RH WIND       PRES   REMARKS
SIOUX FALLS    CLOUDY    70  66  87 S10       29.87S
HURON          RAIN      56  56 100 W5        29.84F FOG
CHAMBERLAIN    LGT RAIN  54  54 100 W5        29.89R
MITCHELL       FOG       58  58 100 SE5       29.85S VSB 1/4
YANKTON        PTCLDY    57  57 100 E5        29.86F FOG
$$

ABBREVIATIONS USED IN REMARKS
   TC - TEMPERATURE IN CELSIUS
  WCI - WIND CHILL INDEX
   HX - HEAT INDEX
  VSB - VISIBILITY





USA.gov is the U.S. government's official web portal to all federal, state and local government web resources and services.